Tracking 31027 objects as of 19-Jul-2025
HD Live streaming from Space Station
objects crossing your sky now

STARLINK-3415

Track STARLINK-3415 now!
10-day predictions
STARLINK-3415 is classified as:


NORAD ID: 51472
Int'l Code: 2022-010S
Perigee: 546.1 km
Apogee: 547.7 km
Inclination: 53.2 °
Period: 95.4 minutes
Semi major axis: 6917 km
RCS: Unknown
Launch date: February 3, 2022
Source: United States (US)
Launch site: AIR FORCE EASTERN TEST RANGE (AFETR)
Your satellite tracking list
STARLINK-4010
Track 1 satellite(s)




NASA's NSSDC Master Catalog

Two Line Element Set (TLE):
1 51472U 22010S   25199.44659735 -.00000727  00000-0 -27614-4 0  9995
2 51472  53.2168 250.6132 0001139  81.2620 278.8501 15.08828976191464
Source of the keplerian elements: AFSPC